CZ-6A DEB

Satellite information

Favourite Embed

Satellite Type and Status

DEBRISIN ORBIT

Key statistics

Satellite CZ-6A DEB at a glance.

Uptime

393

Days in orbit

Revolutions

≈ 13.2

Per day

Orbit

LEO

Low Earth Orbit

Inclination

88.5

Latest

Satellite identification and parameters

Extended collection of information and parameters for CZ-6A DEB.

Object identification

Identified? True

Debris? True

Object name: CZ-6A DEB

International designator: 2024-140GS

Object number (NORAD): 60815

Object ID (CCSDS): 60815

Country: PEOPLES REPUBLIC OF CHINA (PRC)

Current information (Y/N): Y

RCS size: SMALL

Orbital parameters

Period: 109.404 minutes

Inclination: 88.5498 deg

SMA: 7577.306 km

Apoapsis: 1646.286 km

Periapsis: 752.056 km

RAAN: 296.687 deg

Eccentricy: 0.05900713

Argument of periapsis: 212.4169 deg

Mean anomaly: 143.941 deg

Mean motion: 13.16226211 rev/day

Mean motion (dot): 0.00000785 rev/day2

B* drag term: 0.00083268977 1/REarth

Two-line elements (TLE)

Creation date: Sept. 2, 2025, 3:25 a.m.

Reference frame: TEME

Reference center: EARTH

Epoch: Sept. 1, 2025, 2:50 p.m. UTC

TLE line 0: 0 CZ-6A DEB

TLE line 1: 1 60815U 24140GS 25244.61835752 .00000785 00000-0 83269-3 0 9996

TLE line 2: 2 60815 88.5498 296.6870 0590071 212.4169 143.9410 13.16226211 50652

Live tracking on map

Real-time ground track for satellite CZ-6A DEB.

In-orbit conjunctions

A list of the most updated potential collisions computed for object CZ-6A DEB.

Target Orbit TCA Probability of collision Miss distance Type
DMSP 5D-2 F9 (USA 29) SSO 2025-04-06 05:04:36 0.001890325 119.0 (m) PAYLOAD

Associated space launch

18 Low Earth Orbit communication satellites with Ku, Q and V band payloads for the G60 constellation operated by Shanghai Spacecom Satellite Technology (SSST) with funding backed by the Shanghai local government. Initial constellation will consist of 1296 satellites by 2027 with long term plans to expand it to 12000 satellites.

CZ-6A DEB was lifted into orbit during the mission ‘Long March 6A | G60 Polar Group 01’, on board a Long March 6A space rocket.

The launch took place on Aug. 6, 2024, 6:42 a.m. from Launch Complex 9A.

For more information about the launch, click the button.

Launch to space Long March 6A | G60 Polar Group 01
Long March 6A | G60 Polar Group 01

Agency: N/A

Status: Launch Successful

Launch date: Aug. 6, 2024, 6:42 a.m. UTC

Rocket: Long March 6A

Launch pad: Launch Complex 9A

Location: Taiyuan Satellite Launch Center, People's Republic of China

...

Latest news about this satellite

News about space launch
Brightness of first Chinese broadband constellation satellites alarms astronomers

The first satellites of a Chinese broadband constellation are significantly brighter than those of Western systems, posing a new challenge for astronomers.

News about space launch
Chinese rocket stage breaks up into cloud of more than 700 pieces of space debris

HELSINKI — A Chinese Long March 6A rocket’s upper stage has fragmented into a cloud of over 700 pieces of space debris, adding to concerns about long-term orbital safety. China […]

News about space launch
China's Thousand Sails Megaconstellation Kicks Off with Dangerous Debris Field

China's Thousand Sails Megaconstellation Kicks Off with Dangerous Debris Field


Newsletter sign-up

Weekly statistics, charts and insights to help you stay on top of the space industry.